Location: Bratislava
(0.0000°N, 17.1167°E)
Time: 04:49:17
(UTC+01:00)

Ariane H10+ - Pass Details

Date: 24 January 2021
Orbit: 238 x 8041 km, 6.7° (Epoch: 06 March)

Event Time Altitude Azimuth Distance (km) Brightness Sun altitude
Rises 18:11:07 0° 275° (W) 9,515 9.0 -1.7°
Reaches altitude 10° 18:20:39 10° 278° (W) 6,909 8.1 -4.0°
Maximum altitude 18:37:37 55° 352° (N) 1,589 3.6 -8.0°
Enters shadow 18:42:38 11° 70° (ENE) 2,212 3.7 -9.2°
